[[{"header":{"parameterUnit":"m.s-1","parameterCategory":2,"la1":30.2991,"la2":30.254,"lo1":-89.0895,"lo2":-89.0444,"dy":0.0017,"dx":0.0017,"nx":28,"ny":28,"refTime":"2026-02-11T03:00:00:Z","depth":"0","parameterNumber":2,"parameterNumberName":"U-component_of_CURRENTS"},"data":[0,0,0,0,0,0,0,0,0,0,0,0,0,0,0,0,0,0,0,0,0,0,0,0,0,0,0,0,0,0,0,0,0,0,0,0,0,0,0,0,0,0,0,0,0,0,0,0,0,0,0,0,0,0,0,0,0,0,-0.2718,-0.2718,0,-0.2727,-0.2727,-0.2726,-0.2691,-0.269,-0.2689,-0.2688,-0.2653,-0.2653,-0.2652,0,0,0,0,0,0,0,0,0,0,0,0,0,-0.2666,-0.2667,-0.2718,-0.2718,-0.2718,-0.2727,-0.2727,-0.2726,-0.2691,-0.269,-0.2689,-0.2688,-0.2653,-0.2653,-0.2652,0,0,0,0,0,0,0,0,0,0,0,0,0,-0.2681,-0.2667,-0.2718,-0.2704,-0.2703,-0.2727,-0.2726,-0.2726,-0.2691,-0.269,-0.2689,-0.2688,-0.2653,-0.2653,-0.2652,-0.2675,0,0,-0.2652,-0.2651,0,0,0,0,0,0,0,0,-0.268,-0.2682,-0.2705,-0.2705,-0.2704,-0.2709,-0.2695,-0.2708,-0.2691,-0.2693,-0.2688,-0.2687,-0.267,-0.2668,-0.267,-0.2674,-0.2672,-0.2652,-0.2651,-0.2651,-0.2651,0,0,0,0,0,0,0,-0.2679,-0.2682,-0.2719,-0.2706,-0.2705,-0.2696,-0.2696,-0.2698,-0.2685,-0.2693,-0.2691,-0.2696,-0.2669,-0.267,-0.2668,-0.2672,-0.2652,-0.2651,-0.2651,-0.2651,-0.2669,-0.2669,0,0,0,0,0,0,-0.2685,-0.2681,-0.2718,-0.2719,-0.2691,-0.2698,-0.2698,-0.2706,-0.2686,-0.2683,-0.2697,-0.2694,-0.2671,-0.2669,-0.2667,-0.2675,-0.2651,-0.2651,-0.2651,-0.2668,-0.2669,-0.2669,0,0,0,0,0,0,-0.2684,-0.2688,-0.2718,-0.2702,-0.2705,-0.27,-0.2709,-0.2707,-0.2704,-0.2691,-0.2686,-0.2696,-0.267,-0.2667,-0.2668,-0.2673,-0.2651,-0.2651,-0.2667,-0.2668,-0.2669,-0.2701,0,0,0,0,0,0,-0.2682,-0.2688,-0.2691,-0.2703,-0.2707,-0.2733,-0.2711,-0.2708,-0.271,-0.2707,-0.2688,-0.2684,-0.2669,-0.2669,-0.2668,-0.2673,-0.265,-0.2666,-0.2668,-0.2669,-0.2699,-0.2703,-0.2707,0,0,0,0,0,-0.2681,-0.2693,-0.2691,-0.2695,-0.2713,-0.2734,-0.2736,-0.2726,-0.2712,-0.2716,-0.2703,-0.2684,-0.2675,-0.267,-0.2669,-0.2673,-0.2666,-0.2667,-0.2669,-0.2698,-0.2703,-0.2706,0,0,0,0,0,0,-0.2671,-0.2691,-0.2689,-0.2706,-0.272,-0.2729,-0.2731,-0.273,-0.2724,-0.2715,-0.2697,-0.2693,-0.2696,-0.2684,-0.2678,-0.2682,-0.2666,-0.2667,-0.2689,-0.2693,-0.2696,-0.2691,-0.265,0,0,0,0,0,-0.2673,-0.2682,-0.2704,-0.2714,-0.2723,-0.2728,-0.2733,-0.2732,-0.2733,-0.2729,-0.2718,-0.2706,-0.2704,-0.2697,-0.2694,-0.27,-0.2674,-0.2701,-0.2704,-0.2707,-0.2703,-0.2681,-0.2682,-0.2674,-0.2674,-0.2674,0,0,-0.267,-0.2683,-0.2687,-0.2712,-0.2718,-0.2736,-0.2727,-0.274,-0.2749,-0.2727,-0.2728,-0.2721,-0.271,-0.2714,-0.2713,-0.2701,-0.2694,-0.2709,-0.2712,-0.2705,-0.2682,-0.2683,-0.2684,-0.2675,-0.2675,-0.2675,0,0,-0.2671,-0.2684,-0.2692,-0.271,-0.2729,-0.2739,-0.2745,-0.2759,-0.2757,-0.2768,-0.2752,-0.2749,-0.2746,-0.2736,-0.2732,-0.2754,-0.2718,-0.2754,-0.2762,-0.2742,-0.2742,-0.2742,-0.27,-0.2696,-0.2751,-0.2751,-0.2751,0,-0.2665,-0.2681,-0.2697,-0.2716,-0.2728,-0.2741,-0.2757,-0.2768,-0.2778,-0.2778,-0.2769,-0.2765,-0.2755,-0.2757,-0.2761,-0.2761,-0.2736,-0.2747,-0.2745,-0.2745,-0.2744,-0.2702,-0.2697,-0.2752,-0.2752,-0.2752,-0.2752,0,-0.2674,-0.269,-0.2699,-0.2723,-0.2743,-0.2759,-0.2784,-0.2796,-0.2796,-0.28,-0.2805,-0.2796,-0.2787,-0.2789,-0.278,-0.2775,-0.2755,-0.2756,-0.2733,-0.2746,-0.2701,-0.2695,-0.2755,-0.2754,-0.2754,-0.2753,0,0,-0.2643,-0.2694,-0.2693,-0.2706,-0.2747,-0.2761,-0.2789,-0.2811,-0.2817,-0.2826,-0.2823,-0.2827,-0.2818,-0.2812,-0.2803,-0.2787,-0.2758,-0.2768,-0.2766,-0.2723,-0.2694,-0.2608,-0.2593,-0.2759,-0.2758,-0.2758,-0.2661,0,-0.2637,-0.2666,-0.2698,-0.2722,-0.2737,-0.2772,-0.2795,-0.2818,-0.283,-0.2833,-0.283,-0.2827,-0.2829,-0.282,-0.2808,-0.2775,-0.2746,-0.2783,-0.269,-0.2687,-0.2606,-0.2584,-0.2488,-0.2387,-0.2655,-0.2654,-0.2653,0,-0.2622,-0.2646,-0.2668,-0.2715,-0.2726,-0.2745,-0.2775,-0.2801,-0.2825,-0.2832,-0.2837,-0.2834,-0.2821,-0.2814,-0.2762,-0.2786,-0.2739,-0.2709,-0.2705,-0.2608,-0.259,-0.2419,-0.2366,-0.2348,-0.2644,-0.2645,-0.2645,0,-0.2565,-0.2618,-0.2631,-0.2648,-0.2709,-0.2721,-0.275,-0.2787,-0.2805,-0.2823,-0.2828,-0.2823,-0.2806,-0.2769,-0.2716,-0.2736,-0.264,-0.2658,-0.2533,-0.2526,-0.2415,-0.2399,-0.2328,-0.2604,-0.2604,-0.2604,-0.2605,0,-0.2533,-0.254,-0.2604,-0.2608,-0.2624,-0.2682,-0.2697,-0.2731,-0.2769,-0.2776,-0.2814,-0.2806,-0.2794,-0.2747,-0.2702,-0.2586,-0.2625,-0.2517,-0.2491,-0.2422,-0.2409,-0.2365,-0.2397,-0.2601,-0.2602,-0.2602,-0.2603,0,-0.2454,-0.25,-0.2517,-0.2578,-0.2594,-0.26,-0.2663,-0.2673,-0.2729,-0.2736,-0.2741,-0.2775,-0.2716,-0.2681,-0.2602,-0.2548,-0.2408,-0.2408,-0.2315,-0.228,-0.2147,-0.2185,-0.2083,-0.2018,-0.2251,-0.2249,-0.2246,0,-0.241,-0.241,-0.2471,-0.2477,-0.2498,-0.2527,-0.2543,-0.2626,-0.2645,-0.2705,-0.2695,-0.2672,-0.2617,-0.2481,-0.2382,-0.2259,-0.2283,-0.2109,-0.213,-0.2105,-0.2129,-0.2168,-0.2126,-0.1994,-0.199,-0.1986,-0.1984,0,-0.2317,-0.2341,-0.2355,-0.2373,-0.2389,-0.2414,-0.2449,-0.2464,-0.2551,-0.2561,-0.2551,-0.2515,-0.2415,-0.2254,-0.2119,-0.2043,-0.206,-0.2033,-0.2035,-0.1934,-0.1944,-0.1881,-0.2093,-0.1953,-0.1956,-0.1958,-0.196,-0.1961,-0.2229,-0.222,-0.224,-0.2242,-0.2264,-0.2265,-0.2236,-0.229,-0.2291,-0.2277,-0.2345,-0.2259,-0.2174,-0.1968,-0.1879,-0.1729,-0.1812,-0.1689,-0.1737,-0.1779,-0.1713,-0.1842,-0.1664,-0.1665,-0.1666,-0.1667,-0.1668,0,-0.2102,-0.2102,-0.2104,-0.2101,-0.2067,-0.2126,-0.2137,-0.2082,-0.2026,-0.2065,-0.2022,-0.1947,-0.1782,-0.172,-0.1574,-0.1476,-0.1448,-0.1448,-0.1498,-0.1468,-0.1587,-0.157,-0.133,-0.133,-0.133,-0.133,-0.133,-0.133,-0.2034,-0.1986,-0.199,-0.189,-0.1883,-0.1787,-0.1757,-0.1702,-0.1696,-0.1621,-0.1613,-0.1625,-0.1601,-0.165,-0.1488,-0.1392,-0.1368,-0.1315,-0.1348,-0.1467,-0.1495,-0.1521,-0.1511,-0.1262,-0.1262,-0.1168,-0.1168,-0.1167]},{"header":{"parameterUnit":"m.s-1","parameterCategory":2,"la1":30.2991,"la2":30.254,"lo1":-89.0895,"lo2":-89.0444,"dy":0.0017,"dx":0.0017,"nx":28,"ny":28,"refTime":"2026-02-11T03:00:00:Z","depth":"0","parameterNumber":3,"parameterNumberName":"V-component_of_CURRENTS"},"data":[0,0,0,0,0,0,0,0,0,0,0,0,0,0,0,0,0,0,0,0,0,0,0,0,0,0,0,0,0,0,0,0,0,0,0,0,0,0,0,0,0,0,0,0,0,0,0,0,0,0,0,0,0,0,0,0,0,0,-0.0287,-0.0286,0,-0.0218,-0.0218,-0.0217,-0.0167,-0.0167,-0.0167,-0.0166,-0.0061,-0.0058,-0.0056,0,0,0,0,0,0,0,0,0,0,0,0,0,-0.0331,-0.0331,-0.0287,-0.0286,-0.0285,-0.0219,-0.0218,-0.0216,-0.0167,-0.0167,-0.0166,-0.0166,-0.0061,-0.0058,-0.0055,0,0,0,0,0,0,0,0,0,0,0,0,0,-0.0291,-0.0331,-0.0287,-0.0254,-0.025,-0.0219,-0.0218,-0.0216,-0.0167,-0.0167,-0.0166,-0.0166,-0.0062,-0.0059,-0.0055,-0.004,0,0,-0.0043,-0.0042,0,0,0,0,0,0,0,0,-0.0294,-0.029,-0.0259,-0.0256,-0.0252,-0.0202,-0.0195,-0.0156,-0.0167,-0.0197,-0.0166,-0.0166,-0.0106,-0.0098,-0.0085,-0.0035,-0.0031,-0.0043,-0.0041,-0.0039,-0.0038,0,0,0,0,0,0,0,-0.0297,-0.0292,-0.0258,-0.0258,-0.0254,-0.0227,-0.0222,-0.0187,-0.0153,-0.0195,-0.0191,-0.0186,-0.0103,-0.0089,-0.0082,-0.0029,-0.0043,-0.004,-0.0037,-0.0036,0.0051,0.0051,0,0,0,0,0,0,-0.031,-0.0295,-0.026,-0.0256,-0.0274,-0.0227,-0.0221,-0.0217,-0.0154,-0.0145,-0.0186,-0.0184,-0.0096,-0.0087,-0.0078,-0.0058,-0.0039,-0.0036,-0.0033,0.0051,0.0051,0.0051,0,0,0,0,0,0,-0.0312,-0.0308,-0.0263,-0.0275,-0.0268,-0.0228,-0.0224,-0.0216,-0.0203,-0.0148,-0.0138,-0.0181,-0.0095,-0.0084,-0.0049,-0.0053,-0.0034,-0.003,0.0051,0.0051,0.0051,-0.0016,0,0,0,0,0,0,-0.0313,-0.0309,-0.0313,-0.0276,-0.0267,-0.0252,-0.0224,-0.0215,-0.0201,-0.0197,-0.014,-0.013,-0.0094,-0.0055,-0.0045,-0.0047,-0.0027,0.0051,0.0051,0.0051,-0.0014,-0.0018,-0.0022,0,0,0,0,0,-0.0315,-0.0326,-0.0314,-0.031,-0.0274,-0.0253,-0.0246,-0.0215,-0.0201,-0.02,-0.0159,-0.0132,-0.0048,-0.0052,-0.004,-0.0042,0.0051,0.0051,0.0051,-0.0012,-0.0017,-0.0022,0,0,0,0,0,0,-0.0347,-0.0321,-0.0307,-0.0309,-0.0286,-0.0245,-0.0243,-0.0221,-0.0188,-0.0184,-0.0131,-0.0118,-0.009,-0.0056,-0.0062,-0.0016,0.0006,0.0008,-0.0045,-0.005,-0.0054,-0.0068,-0.0024,0,0,0,0,0,-0.0357,-0.0358,-0.0326,-0.0327,-0.0319,-0.0282,-0.027,-0.025,-0.0216,-0.0202,-0.0162,-0.0118,-0.0081,-0.0059,-0.0023,0.0003,0.0043,0.001,0.0006,0.0002,-0.0,0.0055,0.0055,0.0051,0.0051,0.0051,0,0,-0.0368,-0.0355,-0.0355,-0.0334,-0.0314,-0.0312,-0.0274,-0.0262,-0.0257,-0.0195,-0.0176,-0.0133,-0.0078,-0.0051,-0.0035,-0.0022,0.0026,0.0002,-0.0001,-0.0002,0.0055,0.0055,0.0056,0.0051,0.0051,0.0051,0,0,-0.0402,-0.0382,-0.0398,-0.0384,-0.0363,-0.0337,-0.0338,-0.0302,-0.0281,-0.0257,-0.0211,-0.017,-0.0117,-0.0076,-0.0048,-0.0052,-0.0,-0.0041,-0.007,-0.0017,-0.0016,-0.0015,0.0037,0.0043,-0.0041,-0.0041,-0.0041,0,-0.0419,-0.0433,-0.0399,-0.0411,-0.0406,-0.0355,-0.037,-0.0341,-0.0297,-0.0278,-0.0261,-0.0172,-0.0128,-0.0084,-0.0086,-0.0062,-0.0024,-0.0058,-0.0023,-0.0021,-0.0019,0.0034,0.0042,-0.0044,-0.0044,-0.0043,-0.0043,0,-0.0465,-0.0475,-0.0482,-0.048,-0.0468,-0.0471,-0.043,-0.0411,-0.0378,-0.0342,-0.0294,-0.0228,-0.0175,-0.0153,-0.012,-0.0082,-0.0058,-0.0039,-0.0015,-0.0023,0.0034,0.0043,-0.0049,-0.0047,-0.0046,-0.0046,0,0,-0.0508,-0.0516,-0.0519,-0.0532,-0.0506,-0.0502,-0.0488,-0.0457,-0.0444,-0.0388,-0.0362,-0.0291,-0.0248,-0.0214,-0.016,-0.011,-0.0061,-0.0074,-0.0069,-0.003,0.0057,0.011,0.0126,-0.0037,-0.0036,-0.0035,0.009,0,-0.0556,-0.0604,-0.0585,-0.0616,-0.0636,-0.0585,-0.0575,-0.0536,-0.0487,-0.0446,-0.0363,-0.0316,-0.0272,-0.0243,-0.0189,-0.0092,-0.004,-0.0097,0.0066,0.0071,0.0113,0.0137,0.0188,0.0307,0.0099,0.0101,0.0102,0,-0.061,-0.0635,-0.0684,-0.069,-0.0691,-0.0694,-0.0662,-0.0645,-0.0567,-0.0527,-0.046,-0.0388,-0.0303,-0.0266,-0.011,-0.0149,-0.0057,0.0021,0.0028,0.0107,0.0141,0.0283,0.0332,0.0484,0.0117,0.0116,0.0115,0,-0.0669,-0.07,-0.0742,-0.0746,-0.0743,-0.0746,-0.0732,-0.0672,-0.0653,-0.0571,-0.0541,-0.0431,-0.0363,-0.0245,-0.0083,-0.0096,0.0098,0.0102,0.0237,0.0242,0.0334,0.0345,0.0545,0.021,0.021,0.021,0.0209,0,-0.0731,-0.0762,-0.0775,-0.08,-0.0838,-0.0806,-0.0816,-0.0782,-0.0722,-0.0692,-0.0589,-0.0527,-0.0354,-0.0218,-0.009,0.0111,0.0096,0.0243,0.0283,0.0312,0.0319,0.0495,0.0546,0.0215,0.0213,0.0213,0.0212,0,-0.0791,-0.0799,-0.0851,-0.0866,-0.0871,-0.0897,-0.0883,-0.088,-0.0816,-0.077,-0.0743,-0.0586,-0.0398,-0.0216,0.0005,0.0116,0.0402,0.0366,0.0391,0.0431,0.0681,0.0725,0.096,0.1057,0.0529,0.0531,0.0533,0,-0.0826,-0.0862,-0.0909,-0.0941,-0.0952,-0.0976,-0.0988,-0.0938,-0.0922,-0.0795,-0.0773,-0.0579,-0.0422,-0.008,0.0162,0.0412,0.0521,0.0594,0.0578,0.0719,0.0798,0.0826,0.0892,0.0676,0.0679,0.0681,0.0683,0,-0.089,-0.0906,-0.0948,-0.1021,-0.1052,-0.1081,-0.1085,-0.1087,-0.1005,-0.0931,-0.0786,-0.0642,-0.0291,0.0037,0.0363,0.0512,0.072,0.0649,0.08,0.0939,0.098,0.1084,0.0564,0.0704,0.0702,0.07,0.0699,0.0698,-0.0925,-0.0975,-0.1029,-0.1092,-0.1133,-0.1166,-0.1173,-0.1141,-0.1087,-0.0938,-0.0798,-0.0523,-0.0071,0.041,0.0579,0.0959,0.0911,0.1069,0.1114,0.1132,0.1225,0.0747,0.0922,0.0922,0.0921,0.092,0.092,0,-0.0966,-0.102,-0.1093,-0.1162,-0.1211,-0.1212,-0.1217,-0.1175,-0.1089,-0.0901,-0.0711,-0.0159,0.0283,0.0687,0.1199,0.1408,0.145,0.1513,0.1573,0.162,0.1216,0.1221,0.1464,0.1464,0.1464,0.1463,0.1463,0.1463,-0.0988,-0.1067,-0.111,-0.1202,-0.1244,-0.1265,-0.1257,-0.1157,-0.1006,-0.0654,-0.0313,-0.0024,0.056,0.1314,0.178,0.1827,0.2005,0.2,0.2085,0.1806,0.1768,0.1731,0.1751,0.2101,0.2101,0.2488,0.2491,0.2494]}],[{"header":{"parameterUnit":"m.s-1","parameterCategory":2,"la1":30.2991,"la2":30.254,"lo1":-89.0895,"lo2":-89.0444,"dy":0.0017,"dx":0.0017,"nx":28,"ny":28,"refTime":"2026-02-11T03:00:00:Z","depth":"2","parameterNumber":2,"parameterNumberName":"U-component_of_CURRENTS"},"data":[0,0,0,0,0,0,0,0,0,0,0,0,0,0,0,0,0,0,0,0,0,0,0,0,0,0,0,0,0,0,0,0,0,0,0,0,0,0,0,0,0,0,0,0,0,0,0,0,0,0,0,0,0,0,0,0,0,0,-0.232,-0.2321,0,-0.2348,-0.2348,-0.2348,-0.2326,-0.2325,-0.2325,-0.2324,-0.231,-0.231,-0.2311,0,0,0,0,0,0,0,0,0,0,0,0,0,-0.2257,-0.2258,-0.232,-0.2321,-0.2321,-0.2348,-0.2348,-0.2348,-0.2326,-0.2325,-0.2324,-0.2323,-0.231,-0.231,-0.2311,0,0,0,0,0,0,0,0,0,0,0,0,0,-0.2283,-0.2259,-0.232,-0.2315,-0.2315,-0.2348,-0.2348,-0.2348,-0.2326,-0.2325,-0.2324,-0.2323,-0.231,-0.231,-0.2311,-0.2337,0,0,-0.2313,-0.2313,0,0,0,0,0,0,0,0,-0.2282,-0.2285,-0.2315,-0.2315,-0.2315,-0.2334,-0.2321,-0.2343,-0.2327,-0.232,-0.2324,-0.2322,-0.2316,-0.2316,-0.2322,-0.2337,-0.2336,-0.2313,-0.2313,-0.2313,-0.2313,0,0,0,0,0,0,0,-0.228,-0.2284,-0.2329,-0.2316,-0.2316,-0.2314,-0.2316,-0.2325,-0.2322,-0.232,-0.2319,-0.2326,-0.2316,-0.2322,-0.2321,-0.2336,-0.2313,-0.2313,-0.2313,-0.2314,-0.2362,-0.2363,0,0,0,0,0,0,-0.2281,-0.2282,-0.2328,-0.233,-0.2297,-0.2316,-0.2319,-0.2328,-0.2323,-0.2322,-0.2327,-0.2325,-0.2321,-0.2321,-0.2321,-0.2345,-0.2313,-0.2314,-0.2314,-0.2361,-0.2362,-0.2363,0,0,0,0,0,0,-0.228,-0.2285,-0.2327,-0.2308,-0.2313,-0.2319,-0.2329,-0.2329,-0.2333,-0.2328,-0.2326,-0.2331,-0.232,-0.232,-0.2332,-0.2345,-0.2314,-0.2314,-0.236,-0.2361,-0.2363,-0.2398,0,0,0,0,0,0,-0.2278,-0.2285,-0.229,-0.2308,-0.2315,-0.2349,-0.233,-0.233,-0.234,-0.2337,-0.2332,-0.2329,-0.2319,-0.2332,-0.2333,-0.2345,-0.2315,-0.2359,-0.236,-0.2362,-0.2396,-0.2401,-0.2405,0,0,0,0,0,-0.2276,-0.2289,-0.229,-0.2296,-0.2322,-0.235,-0.2354,-0.2352,-0.2341,-0.235,-0.2346,-0.2329,-0.2344,-0.2333,-0.2334,-0.2347,-0.2358,-0.236,-0.2362,-0.2394,-0.24,-0.2405,0,0,0,0,0,0,-0.2263,-0.2289,-0.229,-0.231,-0.233,-0.2347,-0.2355,-0.2357,-0.2363,-0.2357,-0.2346,-0.2344,-0.236,-0.2353,-0.2341,-0.2366,-0.2347,-0.2349,-0.2371,-0.2376,-0.2381,-0.2377,-0.2315,0,0,0,0,0,-0.2266,-0.2279,-0.2306,-0.232,-0.2332,-0.2345,-0.2355,-0.2359,-0.2368,-0.2369,-0.2367,-0.2366,-0.2372,-0.2372,-0.2378,-0.2395,-0.2372,-0.2403,-0.2407,-0.2411,-0.241,-0.2398,-0.2401,-0.237,-0.237,-0.237,0,0,-0.2264,-0.2279,-0.2286,-0.2318,-0.233,-0.2356,-0.2347,-0.2368,-0.2386,-0.2368,-0.2385,-0.2385,-0.2382,-0.2399,-0.2405,-0.2392,-0.2406,-0.2414,-0.2417,-0.2413,-0.2401,-0.2403,-0.2406,-0.2372,-0.2371,-0.2371,0,0,-0.2269,-0.2283,-0.2298,-0.2321,-0.2348,-0.2363,-0.2371,-0.2396,-0.2401,-0.2425,-0.2414,-0.2421,-0.2434,-0.2432,-0.2433,-0.2468,-0.2434,-0.247,-0.2487,-0.2476,-0.2478,-0.2479,-0.2444,-0.2442,-0.2469,-0.2469,-0.2469,0,-0.2265,-0.2287,-0.2306,-0.2331,-0.2349,-0.2368,-0.2391,-0.241,-0.2433,-0.244,-0.2433,-0.2453,-0.2449,-0.2466,-0.2475,-0.2477,-0.2457,-0.2465,-0.2481,-0.2482,-0.2483,-0.2446,-0.2444,-0.2471,-0.247,-0.247,-0.247,0,-0.2283,-0.2305,-0.2318,-0.2353,-0.2378,-0.2402,-0.2434,-0.2455,-0.2464,-0.2476,-0.2496,-0.2497,-0.2502,-0.2508,-0.2501,-0.2512,-0.249,-0.2489,-0.2464,-0.2488,-0.2448,-0.2444,-0.2473,-0.2473,-0.2472,-0.2472,0,0,-0.2257,-0.2318,-0.2321,-0.2339,-0.2391,-0.241,-0.245,-0.2484,-0.2499,-0.2522,-0.2533,-0.2552,-0.2546,-0.2547,-0.2542,-0.2535,-0.2521,-0.2516,-0.2514,-0.2474,-0.2477,-0.2393,-0.2381,-0.2523,-0.2523,-0.2523,-0.2442,0,-0.2261,-0.2303,-0.2337,-0.2376,-0.2399,-0.2439,-0.2472,-0.2506,-0.2527,-0.2545,-0.2552,-0.2563,-0.2564,-0.2561,-0.2559,-0.2534,-0.2516,-0.2541,-0.2465,-0.2462,-0.238,-0.2376,-0.2217,-0.2126,-0.2438,-0.2438,-0.2437,0,-0.2258,-0.2288,-0.2325,-0.2382,-0.2396,-0.2424,-0.247,-0.2505,-0.2544,-0.2558,-0.2577,-0.258,-0.2582,-0.2573,-0.2542,-0.2558,-0.2519,-0.2495,-0.2491,-0.2397,-0.2372,-0.2156,-0.2108,-0.2431,-0.2432,-0.2432,-0.2433,0,-0.2209,-0.2275,-0.23,-0.2321,-0.2392,-0.2412,-0.2448,-0.2498,-0.2523,-0.256,-0.2572,-0.2583,-0.2577,-0.2552,-0.251,-0.2524,-0.2456,-0.2467,-0.2351,-0.2344,-0.2185,-0.2163,-0.2431,-0.2431,-0.2432,-0.2432,-0.2432,0,-0.2189,-0.2207,-0.2278,-0.229,-0.2318,-0.2381,-0.241,-0.2452,-0.2502,-0.2519,-0.2566,-0.2569,-0.2573,-0.2541,-0.2503,-0.2406,-0.2447,-0.2342,-0.2318,-0.2191,-0.2173,-0.2425,-0.2425,-0.2429,-0.2429,-0.243,-0.2431,0,-0.2121,-0.2173,-0.2201,-0.2273,-0.2293,-0.2309,-0.2381,-0.2399,-0.2466,-0.2487,-0.2497,-0.2545,-0.2504,-0.2484,-0.2427,-0.2378,-0.2305,-0.2258,-0.2098,-0.2055,-0.22,-0.2204,-0.212,-0.2117,-0.2114,-0.2111,-0.2109,0,-0.2086,-0.2094,-0.2165,-0.2176,-0.2203,-0.2244,-0.2266,-0.2357,-0.2381,-0.2459,-0.2454,-0.2452,-0.2408,-0.2303,-0.2217,-0.211,-0.2201,-0.1914,-0.1917,-0.2184,-0.2169,-0.2177,-0.2185,-0.1714,-0.1708,-0.1704,-0.1701,0,-0.2009,-0.2035,-0.2056,-0.2082,-0.2106,-0.2137,-0.2182,-0.2197,-0.2293,-0.2311,-0.2314,-0.2287,-0.2214,-0.2035,-0.1925,-0.1853,-0.1923,-0.1823,-0.213,-0.1826,-0.1796,-0.1783,-0.1804,-0.1662,-0.1666,-0.1669,-0.1671,-0.1673,-0.1933,-0.1928,-0.1954,-0.1963,-0.1992,-0.1995,-0.1971,-0.2026,-0.2031,-0.2021,-0.21,-0.2,-0.1979,-0.1715,-0.1605,-0.1522,-0.1661,-0.1592,-0.1607,-0.1626,-0.1603,-0.157,-0.1388,-0.139,-0.1392,-0.1393,-0.1395,0,-0.1822,-0.1824,-0.183,-0.1833,-0.1805,-0.1867,-0.1879,-0.1825,-0.177,-0.1788,-0.1752,-0.1555,-0.1428,-0.141,-0.1219,-0.1174,-0.1179,-0.1129,-0.1145,-0.1183,-0.1216,-0.1175,-0.0845,-0.0843,-0.0841,-0.084,0,0,-0.1763,-0.1721,-0.1721,-0.1632,-0.1631,-0.1544,-0.1515,-0.1457,-0.1432,-0.133,-0.1275,-0.1355,-0.1373,-0.1117,-0.105,-0.0916,-0.1041,-0.0865,-0.1308,-0.1365,-0.1397,-0.1483,-0.1461,0,0,0,0,0]},{"header":{"parameterUnit":"m.s-1","parameterCategory":2,"la1":30.2991,"la2":30.254,"lo1":-89.0895,"lo2":-89.0444,"dy":0.0017,"dx":0.0017,"nx":28,"ny":28,"refTime":"2026-02-11T03:00:00:Z","depth":"2","parameterNumber":3,"parameterNumberName":"V-component_of_CURRENTS"},"data":[0,0,0,0,0,0,0,0,0,0,0,0,0,0,0,0,0,0,0,0,0,0,0,0,0,0,0,0,0,0,0,0,0,0,0,0,0,0,0,0,0,0,0,0,0,0,0,0,0,0,0,0,0,0,0,0,0,0,-0.0356,-0.0355,0,-0.0297,-0.0296,-0.0295,-0.0251,-0.0251,-0.0251,-0.025,-0.0156,-0.0154,-0.0151,0,0,0,0,0,0,0,0,0,0,0,0,0,-0.0387,-0.0387,-0.0356,-0.0355,-0.0354,-0.0297,-0.0296,-0.0295,-0.0251,-0.0251,-0.025,-0.025,-0.0157,-0.0154,-0.0151,0,0,0,0,0,0,0,0,0,0,0,0,0,-0.0354,-0.0387,-0.0356,-0.0326,-0.0323,-0.0297,-0.0296,-0.0295,-0.0251,-0.0251,-0.025,-0.025,-0.0157,-0.0154,-0.0151,-0.0139,0,0,-0.0141,-0.0139,0,0,0,0,0,0,0,0,-0.0356,-0.0353,-0.0331,-0.0328,-0.0325,-0.0282,-0.0272,-0.0241,-0.0251,-0.0278,-0.025,-0.025,-0.0196,-0.0189,-0.0178,-0.0135,-0.0131,-0.014,-0.0138,-0.0137,-0.0136,0,0,0,0,0,0,0,-0.0359,-0.0355,-0.0331,-0.0331,-0.0327,-0.0301,-0.0296,-0.0266,-0.0238,-0.0275,-0.0272,-0.0267,-0.0193,-0.0182,-0.0176,-0.013,-0.014,-0.0137,-0.0135,-0.0134,-0.0055,-0.0055,0,0,0,0,0,0,-0.0371,-0.0358,-0.0333,-0.033,-0.0341,-0.0301,-0.0296,-0.0295,-0.0239,-0.0231,-0.0268,-0.0265,-0.0187,-0.018,-0.0172,-0.015,-0.0137,-0.0134,-0.0132,-0.0055,-0.0055,-0.0055,0,0,0,0,0,0,-0.0372,-0.0369,-0.0336,-0.0343,-0.0337,-0.0302,-0.0301,-0.0294,-0.0282,-0.0234,-0.0225,-0.0263,-0.0187,-0.0177,-0.0146,-0.0146,-0.0132,-0.0129,-0.0055,-0.0055,-0.0055,-0.011,0,0,0,0,0,0,-0.0373,-0.037,-0.0375,-0.0344,-0.0337,-0.0326,-0.0301,-0.0293,-0.028,-0.0277,-0.0227,-0.0218,-0.0186,-0.0151,-0.0143,-0.0142,-0.0127,-0.0055,-0.0055,-0.0055,-0.0108,-0.0112,-0.0115,0,0,0,0,0,-0.0374,-0.0385,-0.0376,-0.0372,-0.0344,-0.0327,-0.0321,-0.0293,-0.0281,-0.028,-0.0244,-0.0219,-0.0144,-0.0149,-0.0138,-0.0137,-0.0055,-0.0055,-0.0055,-0.0107,-0.0111,-0.0115,0,0,0,0,0,0,-0.0402,-0.0381,-0.037,-0.0374,-0.0354,-0.032,-0.0317,-0.0298,-0.027,-0.0265,-0.0219,-0.0207,-0.0181,-0.0151,-0.0157,-0.0112,-0.0095,-0.0093,-0.0138,-0.0141,-0.0144,-0.0156,-0.0124,0,0,0,0,0,-0.0411,-0.0413,-0.0387,-0.039,-0.0383,-0.0351,-0.0341,-0.0323,-0.0294,-0.0281,-0.0245,-0.0206,-0.0172,-0.0152,-0.012,-0.0096,-0.0058,-0.0087,-0.009,-0.0093,-0.0095,-0.0039,-0.0038,-0.0054,-0.0054,-0.0054,0,0,-0.0422,-0.0411,-0.0412,-0.0396,-0.0378,-0.0376,-0.0344,-0.0334,-0.0328,-0.0275,-0.0256,-0.0219,-0.0169,-0.0143,-0.0128,-0.0117,-0.0068,-0.0093,-0.0096,-0.0095,-0.0039,-0.0037,-0.0036,-0.0054,-0.0054,-0.0054,0,0,-0.0449,-0.0436,-0.0449,-0.0437,-0.0419,-0.0397,-0.0397,-0.0366,-0.0347,-0.0325,-0.0285,-0.0247,-0.02,-0.0161,-0.0136,-0.0136,-0.009,-0.0127,-0.0148,-0.0095,-0.0094,-0.0092,-0.0043,-0.0037,-0.0125,-0.0126,-0.0126,0,-0.0464,-0.0476,-0.0449,-0.0458,-0.0454,-0.0411,-0.0422,-0.0397,-0.0359,-0.0341,-0.0328,-0.0247,-0.0208,-0.0164,-0.0164,-0.0143,-0.0108,-0.0141,-0.01,-0.0097,-0.0094,-0.0045,-0.0037,-0.0128,-0.0128,-0.0128,-0.0127,0,-0.0501,-0.0509,-0.0515,-0.0512,-0.0502,-0.0505,-0.047,-0.0453,-0.0424,-0.0393,-0.0347,-0.0289,-0.024,-0.022,-0.0192,-0.0151,-0.0132,-0.0115,-0.0094,-0.0096,-0.0044,-0.0035,-0.0132,-0.0131,-0.013,-0.013,0,0,-0.0536,-0.0542,-0.0544,-0.0555,-0.0533,-0.053,-0.0516,-0.0488,-0.0475,-0.0425,-0.0399,-0.0334,-0.0297,-0.0266,-0.0219,-0.0169,-0.0118,-0.0139,-0.0135,-0.0098,-0.0003,0.0027,0.0041,-0.0096,-0.0094,-0.0093,0.0024,0,-0.0573,-0.0611,-0.0596,-0.0621,-0.0637,-0.0595,-0.0586,-0.0551,-0.0509,-0.0472,-0.0395,-0.0353,-0.0315,-0.029,-0.0236,-0.0149,-0.0096,-0.0152,-0.0,0.0004,0.0026,0.0052,0.003,0.0134,0.0034,0.0036,0.0037,0,-0.0614,-0.0635,-0.0675,-0.0682,-0.0683,-0.0686,-0.0659,-0.0644,-0.0574,-0.0539,-0.0477,-0.0414,-0.0333,-0.0301,-0.0153,-0.0192,-0.0106,-0.0034,-0.0028,0.0026,0.0052,0.0122,0.0156,0.0053,0.0052,0.0051,0.005,0,-0.0662,-0.0687,-0.0723,-0.0727,-0.0726,-0.0728,-0.0718,-0.0666,-0.065,-0.0576,-0.055,-0.0446,-0.0386,-0.0272,-0.0127,-0.0138,0.0042,0.0047,0.0159,0.0162,0.0187,0.019,0.0156,0.0156,0.0155,0.0155,0.0155,0,-0.0711,-0.0738,-0.0751,-0.0773,-0.0807,-0.0781,-0.0792,-0.0762,-0.0711,-0.0689,-0.059,-0.0539,-0.0375,-0.0251,-0.0132,0.0046,0.0042,0.0165,0.02,0.0167,0.0167,0.0129,0.0124,0.016,0.0159,0.0158,0.0157,0,-0.0759,-0.0768,-0.0813,-0.0829,-0.0835,-0.0859,-0.0855,-0.0855,-0.0798,-0.0763,-0.0739,-0.0596,-0.0428,-0.0258,-0.0052,0.0049,0.021,0.0274,0.0224,0.0251,0.0294,0.0285,0.0407,0.041,0.0411,0.0413,0.0414,0,-0.0787,-0.0818,-0.0864,-0.0896,-0.0908,-0.0934,-0.0949,-0.0908,-0.0899,-0.0792,-0.0775,-0.0602,-0.0468,-0.0157,0.0056,0.0283,0.0277,0.039,0.0367,0.0301,0.0322,0.031,0.0299,0.038,0.0381,0.0382,0.0382,0,-0.0839,-0.0856,-0.0894,-0.0966,-0.1,-0.1032,-0.1043,-0.1049,-0.0984,-0.0923,-0.0803,-0.068,-0.0375,-0.0115,0.0178,0.0304,0.0347,0.0412,0.0376,0.0313,0.0283,0.0301,0.029,0.0389,0.0388,0.0388,0.0387,0.0387,-0.0869,-0.0914,-0.0967,-0.103,-0.1074,-0.1113,-0.1126,-0.1104,-0.1066,-0.0944,-0.083,-0.0607,-0.037,0.0063,0.026,0.0446,0.0438,0.0483,0.0477,0.0472,0.044,0.0415,0.054,0.054,0.054,0.054,0.0541,0,-0.0906,-0.0957,-0.1026,-0.1096,-0.1149,-0.1155,-0.117,-0.114,-0.1075,-0.0929,-0.0774,-0.048,-0.0188,0.0061,0.0362,0.053,0.0509,0.0555,0.0489,0.0482,0.0476,0.0441,0.0543,0.0543,0.0544,0.0544,0,0,-0.0927,-0.1001,-0.1039,-0.1135,-0.1182,-0.1213,-0.1213,-0.1133,-0.1018,-0.0849,-0.0672,-0.0457,-0.0162,0.0048,0.0256,0.0412,0.0403,0.0427,0.0409,0.0299,0.0291,0.042,0.0358,0,0,0,0,0]}],[{"header":{"parameterUnit":"m.s-1","parameterCategory":2,"la1":30.2991,"la2":30.254,"lo1":-89.0895,"lo2":-89.0444,"dy":0.0017,"dx":0.0017,"nx":28,"ny":28,"refTime":"2026-02-11T03:00:00:Z","depth":"4","parameterNumber":2,"parameterNumberName":"U-component_of_CURRENTS"},"data":[0,0,0,0,0,0,0,0,0,0,0,0,0,0,0,0,0,0,0,0,0,0,0,0,0,0,0,0,0,0,0,0,0,0,0,0,0,0,0,0,0,0,0,0,0,0,0,0,0,0,0,0,0,0,0,0,0,0,-0.16,-0.1601,0,-0.1667,-0.1668,-0.1668,-0.1705,-0.1705,-0.1705,-0.1705,-0.1767,-0.1768,-0.177,0,0,0,0,0,0,0,0,0,0,0,0,0,-0.1511,-0.1512,-0.16,-0.1601,-0.1602,-0.1667,-0.1668,-0.1669,-0.1705,-0.1705,-0.1705,-0.1706,-0.1766,-0.1768,-0.177,0,0,0,0,0,0,0,0,0,0,0,0,0,-0.1559,-0.1512,-0.16,-0.1629,-0.1633,-0.1667,-0.1668,-0.1669,-0.1705,-0.1705,-0.1705,-0.1706,-0.1766,-0.1768,-0.177,-0.1777,0,0,-0.1777,-0.1777,0,0,0,0,0,0,0,0,-0.1557,-0.1562,-0.1624,-0.1627,-0.1631,-0.1679,-0.1659,-0.1705,-0.1705,-0.1676,-0.1705,-0.1706,-0.1738,-0.1742,-0.1752,-0.1779,-0.1782,-0.1777,-0.1778,-0.1779,-0.178,0,0,0,0,0,0,0,-0.1553,-0.156,-0.1625,-0.1625,-0.1629,-0.1641,-0.1648,-0.1668,-0.1703,-0.1678,-0.1682,-0.1691,-0.1739,-0.175,-0.1754,-0.1783,-0.1777,-0.1779,-0.178,-0.1781,-0.1886,-0.1887,0,0,0,0,0,0,-0.1547,-0.1557,-0.1623,-0.1628,-0.1595,-0.1643,-0.165,-0.1662,-0.1703,-0.171,-0.1691,-0.1693,-0.1746,-0.1751,-0.1756,-0.1829,-0.1779,-0.1781,-0.1782,-0.1884,-0.1886,-0.1888,0,0,0,0,0,0,-0.1545,-0.1553,-0.1621,-0.1594,-0.1604,-0.1644,-0.1657,-0.1663,-0.1701,-0.1713,-0.1719,-0.1725,-0.1747,-0.1753,-0.18,-0.183,-0.1782,-0.1784,-0.1882,-0.1885,-0.1887,-0.1936,0,0,0,0,0,0,-0.1542,-0.1551,-0.1571,-0.1594,-0.1606,-0.1659,-0.1657,-0.1665,-0.1705,-0.1709,-0.1743,-0.1748,-0.1747,-0.1797,-0.1802,-0.1832,-0.1786,-0.188,-0.1883,-0.1886,-0.1932,-0.1939,-0.1945,0,0,0,0,0,-0.1539,-0.156,-0.1572,-0.1581,-0.1627,-0.166,-0.1668,-0.1695,-0.1707,-0.1729,-0.1755,-0.1748,-0.1818,-0.18,-0.1806,-0.1837,-0.1879,-0.1883,-0.1886,-0.1929,-0.1938,-0.1945,0,0,0,0,0,0,-0.1533,-0.1567,-0.158,-0.1612,-0.1643,-0.1667,-0.1695,-0.1712,-0.1751,-0.1763,-0.177,-0.1777,-0.1828,-0.1828,-0.1808,-0.1875,-0.1847,-0.1851,-0.1878,-0.1886,-0.1893,-0.1886,-0.1787,0,0,0,0,0,-0.154,-0.1567,-0.1597,-0.1626,-0.1644,-0.1675,-0.1698,-0.1718,-0.1748,-0.1767,-0.1792,-0.1818,-0.1842,-0.1861,-0.1882,-0.1922,-0.1901,-0.1945,-0.1951,-0.1957,-0.1956,-0.1956,-0.1962,-0.1899,-0.1899,-0.1899,0,0,-0.1547,-0.1569,-0.1586,-0.1628,-0.1654,-0.1688,-0.1691,-0.1734,-0.1768,-0.1767,-0.1829,-0.1846,-0.1859,-0.1903,-0.1925,-0.1909,-0.1964,-0.1961,-0.1966,-0.1962,-0.196,-0.1966,-0.1971,-0.1901,-0.19,-0.19,0,0,-0.1563,-0.1595,-0.162,-0.165,-0.1697,-0.1716,-0.1735,-0.178,-0.1809,-0.1863,-0.187,-0.1905,-0.1951,-0.1961,-0.197,-0.2027,-0.2,-0.204,-0.2069,-0.2069,-0.2074,-0.2078,-0.2051,-0.2052,-0.2042,-0.2042,-0.2042,0,-0.1573,-0.1606,-0.1634,-0.1666,-0.1696,-0.1732,-0.1768,-0.1803,-0.1859,-0.1883,-0.1892,-0.196,-0.1974,-0.2013,-0.2034,-0.2041,-0.2028,-0.2036,-0.2076,-0.208,-0.2083,-0.2054,-0.2055,-0.2045,-0.2045,-0.2044,-0.2044,0,-0.1598,-0.1639,-0.1659,-0.171,-0.1746,-0.1786,-0.1832,-0.1878,-0.1917,-0.1944,-0.2005,-0.2027,-0.206,-0.2076,-0.2074,-0.211,-0.2088,-0.2084,-0.2051,-0.2092,-0.206,-0.2059,-0.2049,-0.2048,-0.2047,-0.2047,0,0,-0.158,-0.1661,-0.1671,-0.1704,-0.1775,-0.1803,-0.1868,-0.1924,-0.1962,-0.202,-0.206,-0.2112,-0.2122,-0.2133,-0.2139,-0.2145,-0.2155,-0.213,-0.2128,-0.2094,-0.2139,-0.1997,-0.1983,-0.2161,-0.2161,-0.2162,-0.2104,0,-0.1593,-0.1654,-0.1696,-0.1763,-0.1797,-0.1856,-0.1907,-0.1965,-0.2014,-0.2062,-0.2094,-0.2136,-0.2144,-0.2162,-0.2174,-0.2163,-0.2159,-0.217,-0.2112,-0.211,-0.1972,-0.1979,-0.2164,-0.2103,-0.2103,-0.2103,-0.2103,0,-0.1595,-0.1638,-0.1703,-0.1785,-0.1806,-0.1855,-0.1937,-0.199,-0.2061,-0.2096,-0.2145,-0.2166,-0.2197,-0.2192,-0.2192,-0.2201,-0.2175,-0.216,-0.2157,-0.2005,-0.1967,-0.2058,-0.2102,-0.2102,-0.2102,-0.2102,-0.2102,0,-0.1547,-0.1639,-0.1691,-0.1722,-0.182,-0.1865,-0.1921,-0.2001,-0.2042,-0.2118,-0.2145,-0.2188,-0.2207,-0.2199,-0.2178,-0.2189,-0.2152,-0.2158,-0.2002,-0.1991,-0.2116,-0.2112,-0.2145,-0.2145,-0.2145,-0.2145,-0.2145,0,-0.1523,-0.1567,-0.1679,-0.1705,-0.1767,-0.1847,-0.1914,-0.1975,-0.2051,-0.208,-0.2157,-0.2168,-0.2213,-0.22,-0.2175,-0.2073,-0.2148,-0.1995,-0.1965,-0.2137,-0.2137,-0.2114,-0.2111,-0.2143,-0.2144,-0.2144,-0.2144,0,-0.1452,-0.1529,-0.1592,-0.1706,-0.1745,-0.1789,-0.1901,-0.1934,-0.2026,-0.2064,-0.2086,-0.2155,-0.2131,-0.214,-0.2113,-0.2046,-0.1978,-0.1923,-0.2086,-0.2069,-0.1816,-0.1817,-0.1736,-0.1731,-0.1726,-0.1722,-0.1719,0,-0.1416,-0.1444,-0.1573,-0.1607,-0.1664,-0.1745,-0.1788,-0.1903,-0.1932,-0.2029,-0.2021,-0.2049,-0.2069,-0.1904,-0.1943,-0.1863,-0.1847,-0.1798,-0.1825,-0.1794,-0.1775,-0.1783,-0.179,-0.1711,-0.171,-0.1709,-0.1708,0,-0.134,-0.1401,-0.145,-0.1521,-0.1581,-0.1636,-0.1709,-0.1714,-0.1824,-0.193,-0.1889,-0.1861,-0.1827,-0.1796,-0.1741,-0.1695,-0.1824,-0.1749,-0.1759,-0.1784,-0.1763,-0.175,-0.1763,-0.1691,-0.1694,-0.1695,-0.1696,0,-0.128,-0.1294,-0.1364,-0.1407,-0.1479,-0.1488,-0.1551,-0.157,-0.1612,-0.1725,-0.1703,-0.1733,-0.18,-0.1706,-0.166,-0.1596,-0.1578,-0.1527,-0.1549,-0.1567,-0.154,-0.149,-0.1296,0,0,0,0,0,-0.1207,-0.1203,-0.1239,-0.1279,-0.1341,-0.1377,-0.1473,-0.1535,-0.1646,-0.1564,-0.1627,-0.1585,-0.152,-0.1545,-0.144,-0.1585,-0.1586,-0.1458,-0.1541,-0.1601,-0.162,-0.1604,0,0,0,0,0,0,-0.1157,-0.1186,-0.1193,-0.1153,-0.1151,-0.1201,-0.1252,-0.1333,-0.1301,-0.1418,-0.1387,-0.1478,-0.1436,-0.1539,-0.1401,-0.1406,-0.1423,-0.149,-0.1485,-0.159,-0.1607,-0.1623,-0.1613,0,0,0,0,0]},{"header":{"parameterUnit":"m.s-1","parameterCategory":2,"la1":30.2991,"la2":30.254,"lo1":-89.0895,"lo2":-89.0444,"dy":0.0017,"dx":0.0017,"nx":28,"ny":28,"refTime":"2026-02-11T03:00:00:Z","depth":"4","parameterNumber":3,"parameterNumberName":"V-component_of_CURRENTS"},"data":[0,0,0,0,0,0,0,0,0,0,0,0,0,0,0,0,0,0,0,0,0,0,0,0,0,0,0,0,0,0,0,0,0,0,0,0,0,0,0,0,0,0,0,0,0,0,0,0,0,0,0,0,0,0,0,0,0,0,-0.0292,-0.0292,0,-0.0258,-0.0257,-0.0257,-0.023,-0.023,-0.023,-0.023,-0.0163,-0.0161,-0.016,0,0,0,0,0,0,0,0,0,0,0,0,0,-0.03,-0.03,-0.0292,-0.0292,-0.0291,-0.0258,-0.0257,-0.0257,-0.023,-0.023,-0.023,-0.023,-0.0163,-0.0162,-0.016,0,0,0,0,0,0,0,0,0,0,0,0,0,-0.0284,-0.03,-0.0292,-0.0275,-0.0273,-0.0258,-0.0257,-0.0257,-0.023,-0.023,-0.023,-0.023,-0.0164,-0.0162,-0.0159,-0.015,0,0,-0.0152,-0.0151,0,0,0,0,0,0,0,0,-0.0285,-0.0283,-0.0278,-0.0276,-0.0274,-0.0249,-0.0236,-0.022,-0.0231,-0.0246,-0.023,-0.0229,-0.0189,-0.0185,-0.0178,-0.0147,-0.0144,-0.0152,-0.015,-0.0149,-0.0149,0,0,0,0,0,0,0,-0.0286,-0.0285,-0.0278,-0.0277,-0.0275,-0.0257,-0.0254,-0.0232,-0.0218,-0.0244,-0.0243,-0.024,-0.0188,-0.0181,-0.0177,-0.0143,-0.0152,-0.015,-0.0148,-0.0147,-0.0091,-0.0091,0,0,0,0,0,0,-0.0294,-0.0286,-0.0279,-0.0277,-0.028,-0.0257,-0.0254,-0.0256,-0.0219,-0.0214,-0.024,-0.0239,-0.0185,-0.0179,-0.0174,-0.0161,-0.0149,-0.0147,-0.0146,-0.0091,-0.0091,-0.0091,0,0,0,0,0,0,-0.0294,-0.0294,-0.028,-0.0281,-0.0278,-0.0258,-0.026,-0.0256,-0.0252,-0.0217,-0.021,-0.0241,-0.0185,-0.0177,-0.0158,-0.0158,-0.0146,-0.0144,-0.0091,-0.0091,-0.0091,-0.0135,0,0,0,0,0,0,-0.0295,-0.0294,-0.0301,-0.0282,-0.0278,-0.0278,-0.026,-0.0255,-0.0251,-0.0249,-0.0215,-0.0208,-0.0184,-0.0161,-0.0155,-0.0155,-0.0142,-0.0091,-0.0091,-0.0091,-0.0134,-0.0136,-0.0139,0,0,0,0,0,-0.0295,-0.0307,-0.0302,-0.0301,-0.0288,-0.0278,-0.0275,-0.0259,-0.0251,-0.0253,-0.0228,-0.0209,-0.0156,-0.016,-0.0152,-0.0151,-0.0091,-0.0091,-0.0091,-0.0132,-0.0136,-0.0139,0,0,0,0,0,0,-0.0314,-0.0305,-0.0299,-0.0307,-0.0297,-0.0274,-0.0276,-0.0264,-0.0247,-0.0245,-0.021,-0.0202,-0.0185,-0.0162,-0.0167,-0.0134,-0.012,-0.0118,-0.0154,-0.0157,-0.0159,-0.0168,-0.014,0,0,0,0,0,-0.0322,-0.0329,-0.0314,-0.0321,-0.0318,-0.0298,-0.0293,-0.0283,-0.0264,-0.0256,-0.0232,-0.0204,-0.0179,-0.0164,-0.0141,-0.0124,-0.0091,-0.0117,-0.012,-0.0122,-0.0124,-0.0073,-0.0071,-0.0091,-0.0091,-0.0091,0,0,-0.0332,-0.0328,-0.0331,-0.0326,-0.0316,-0.0317,-0.0295,-0.0292,-0.029,-0.0251,-0.0242,-0.0215,-0.0177,-0.0159,-0.0149,-0.014,-0.01,-0.0122,-0.0125,-0.0125,-0.0073,-0.0071,-0.0069,-0.0091,-0.0091,-0.0091,0,0,-0.0354,-0.0351,-0.0363,-0.0358,-0.0349,-0.0336,-0.0338,-0.0319,-0.0308,-0.0297,-0.0266,-0.0239,-0.0207,-0.0175,-0.0155,-0.0157,-0.0118,-0.0152,-0.0168,-0.0119,-0.0117,-0.0115,-0.0073,-0.0067,-0.015,-0.015,-0.015,0,-0.0366,-0.0379,-0.0364,-0.0374,-0.0374,-0.0347,-0.0358,-0.0343,-0.032,-0.0309,-0.0301,-0.0242,-0.0212,-0.0177,-0.0179,-0.0163,-0.0132,-0.0161,-0.0123,-0.012,-0.0117,-0.0074,-0.0067,-0.0152,-0.0152,-0.0151,-0.0151,0,-0.0393,-0.0406,-0.0412,-0.0415,-0.0412,-0.0418,-0.0397,-0.0389,-0.0373,-0.0351,-0.0319,-0.0275,-0.0239,-0.0223,-0.0203,-0.0166,-0.0151,-0.0136,-0.0117,-0.0118,-0.0073,-0.0064,-0.0155,-0.0154,-0.0154,-0.0153,0,0,-0.0416,-0.043,-0.0433,-0.0446,-0.0437,-0.0439,-0.0433,-0.0417,-0.0412,-0.0378,-0.0361,-0.0311,-0.0284,-0.0259,-0.0223,-0.0178,-0.0131,-0.0153,-0.015,-0.0116,-0.0026,-0.0034,-0.0025,-0.011,-0.0108,-0.0107,-0.0004,0,-0.0442,-0.0477,-0.0471,-0.0498,-0.0512,-0.049,-0.0487,-0.0467,-0.0441,-0.0417,-0.0357,-0.0328,-0.0297,-0.028,-0.0232,-0.0159,-0.011,-0.0161,-0.0027,-0.0023,-0.0033,-0.0016,-0.0103,0.0002,0.0004,0.0006,0.0007,0,-0.0469,-0.049,-0.0527,-0.0545,-0.0548,-0.0558,-0.055,-0.0543,-0.0495,-0.0472,-0.0425,-0.0377,-0.031,-0.0284,-0.0156,-0.0191,-0.0115,-0.0053,-0.0048,-0.0034,-0.0015,0.0005,0.0023,0.0022,0.0021,0.002,0.0019,0,-0.0497,-0.0528,-0.0562,-0.0569,-0.0582,-0.0593,-0.0594,-0.0563,-0.0557,-0.0504,-0.0488,-0.0402,-0.0356,-0.0254,-0.0134,-0.0142,0.0013,0.0021,0.009,0.0091,0.0086,0.0082,0.012,0.012,0.012,0.012,0.0119,0,-0.0524,-0.0552,-0.0584,-0.0604,-0.0644,-0.0633,-0.0657,-0.064,-0.061,-0.0598,-0.0522,-0.0484,-0.0345,-0.0242,-0.0137,0.0,0.0015,0.0092,0.0119,0.0064,0.0058,0.0092,0.0087,0.0123,0.0123,0.0122,0.0121,0,-0.0545,-0.0566,-0.0613,-0.0646,-0.0661,-0.069,-0.0712,-0.0719,-0.0685,-0.0664,-0.0648,-0.0535,-0.0399,-0.0257,-0.0078,-0.0004,0.0129,0.0178,0.0107,0.0128,0.0175,0.0167,0.0261,0.0262,0.0262,0.0263,0.0263,0,-0.0557,-0.0585,-0.0652,-0.069,-0.0711,-0.0752,-0.0776,-0.0762,-0.076,-0.0691,-0.0675,-0.0544,-0.0456,-0.0205,-0.0064,0.014,0.0167,0.023,0.0203,0.0174,0.0191,0.0182,0.0174,0.0264,0.0264,0.0264,0.0264,0,-0.0579,-0.061,-0.065,-0.0731,-0.0779,-0.0822,-0.0849,-0.0852,-0.0817,-0.0791,-0.0676,-0.0541,-0.0383,-0.0197,-0.0036,0.0107,0.0181,0.0236,0.0235,0.0211,0.0179,0.0193,0.0184,0.0266,0.0266,0.0266,0.0266,0,-0.0593,-0.0632,-0.0695,-0.0759,-0.0827,-0.0866,-0.0881,-0.0857,-0.0842,-0.0754,-0.0715,-0.0538,-0.0429,-0.0213,-0.0068,0.0072,0.0103,0.0137,0.0142,0.0142,0.0069,0.0008,0.0072,0,0,0,0,0,-0.06,-0.0647,-0.0716,-0.0788,-0.0854,-0.0886,-0.0914,-0.0912,-0.0879,-0.0799,-0.0751,-0.0597,-0.0359,-0.0252,-0.0111,-0.0078,0.0107,0.0088,0.0143,0.0277,0.0274,0.0208,0,0,0,0,0,0,-0.0608,-0.0676,-0.0713,-0.0793,-0.0842,-0.0904,-0.0921,-0.0901,-0.0844,-0.0789,-0.0656,-0.0574,-0.034,-0.0433,-0.0109,-0.0067,-0.0018,0.0205,0.0208,0.0278,0.0276,0.0274,0.0205,0,0,0,0,0]}]]